DW5566 Weather Reports


Display with metric or nautical units.
time (UTC)temp
F
wind
direction
speed
MPH
gust
MPH
rain 1hr
in
rain 24hr
in
rain mn
in
humidity
%
barometer
mb
20190116154707 62 281 8.0 11.0 0.00 0.00 0.00 64 1019.1
20190116153158 62 264 9.0 12.0 0.00 0.00 0.00 64 1019.1
20190116151549 62 295 8.0 12.0 0.00 0.00 0.00 65 1019.1
20190116150108 62 285 8.0 11.0 0.00 0.00 0.00 66 1019.2
20190116144602 62 283 9.0 11.0 0.00 0.00 0.00 65 1019.2
20190116143105 62 290 7.0 11.0 0.00 0.00 0.00 65 1019.3
20190116141625 62 292 7.0 12.0 0.00 0.00 0.00 64 1019.3
20190116140034 62 283 9.0 12.0 0.00 0.00 0.00 62 1019.4
20190116134620 62 284 7.0 11.0 0.00 0.00 0.00 61 1019.5
20190116133040 62 285 7.0 11.0 0.00 0.00 0.00 58 1019.7
20190116131546 62 289 6.0 8.0 0.00 0.00 0.00 59 1019.9
20190116130115 61 288 6.0 8.0 0.00 0.00 0.00 59 1020.1
20190116124527 62 283 8.0 11.0 0.00 0.00 0.00 60 1020.4
20190116123033 61 266 8.0 11.0 0.00 0.00 0.00 61 1020.6
20190116121527 62 266 6.0 10.0 0.00 0.00 0.00 59 1020.7
20190116120101 61 271 7.0 10.0 0.00 0.00 0.00 59 1021.0
20190116114517 61 245 4.0 11.0 0.00 0.00 0.00 66 1021.2
20190116113118 60 214 4.0 8.0 0.00 0.00 0.00 69 1021.5
20190116111522 59 263 5.0 9.0 0.00 0.00 0.00 69 1021.7
20190116110014 59 238 5.0 9.0 0.00 0.00 0.00 70 1021.8
20190116104530 59 206 3.0 8.0 0.00 0.00 0.00 70 1021.9
20190116101753 57 269 2.0 6.0 0.00 0.00 0.00 76 1022.0
20190116100131 56 259 2.0 4.0 0.00 0.00 0.00 77 1022.0
20190116094650 55 165 1.0 5.0 0.00 0.00 0.00 78 1021.8
20190116093113 54 134 1.0 4.0 0.00 0.00 0.00 80 1021.7
20190116091610 53 165 0.0 4.0 0.00 0.00 0.00 81 1021.4
20190116090138 51 210 0.0 4.0 0.00 0.00 0.00 82 1021.4
20190116084546 50 116 0.0 4.0 0.00 0.00 0.00 83 1021.2
20190116083101 49 152 0.0 5.0 0.00 0.00 0.00 84 1021.1
20190116081621 48 228 0.0 4.0 0.00 0.00 0.00 85 1021.2
20190116080054 47 140 2.0 8.0 0.00 0.00 0.00 85 1021.2
20190116074547 46 193 2.0 5.0 0.00 0.00 0.00 85 1021.2
20190116073038 46 148 2.0 5.0 0.00 0.00 0.00 85 1021.2
20190116071555 46 127 1.0 4.0 0.00 0.00 0.00 85 1021.1
20190116070040 46 110 0.0 4.0 0.00 0.00 0.00 85 1021.1
20190116064536 46 136 1.0 6.0 0.00 0.00 0.00 85 1021.1
20190116063100 46 150 1.0 5.0 0.00 0.00 0.00 85 1020.9
20190116061545 46 146 1.0 3.0 0.00 0.00 0.00 85 1020.9
20190116060046 46 207 1.0 5.0 0.00 0.00 0.00 85 1020.8
20190116054552 47 138 1.0 5.0 0.00 0.00 0.00 85 1020.8
20190116053048 47 144 0.0 4.0 0.00 0.00 0.00 85 1020.9
20190116051521 47 142 1.0 4.0 0.00 0.00 0.00 85 1020.9
20190116050027 47 146 1.0 5.0 0.00 0.00 0.00 85 1020.9
20190116044523 47 159 1.0 4.0 0.00 0.00 0.00 85 1021.0
20190116043027 46 162 1.0 4.0 0.00 0.00 0.00 85 1021.1
20190116041521 47 125 1.0 4.0 0.00 0.00 0.00 85 1021.2
20190116040015 47 141 1.0 4.0 0.00 0.00 0.00 84 1021.3
20190116034532 47 162 0.0 4.0 0.00 0.00 0.00 84 1021.4
20190116033007 47 167 1.0 4.0 0.00 0.00 0.00 85 1021.5
20190116031503 47 148 0.0 3.0 0.00 0.00 0.00 84 1021.5
20190116030228 47 152 1.0 5.0 0.00 0.00 0.00 84 1021.5
20190116024643 47 117 1.0 5.0 0.00 0.00 0.00 84 1021.4
20190116023133 47 195 1.0 5.0 0.00 0.00 0.00 84 1021.5
20190116021639 47 146 0.0 4.0 0.00 0.00 0.00 84 1021.6
20190116020126 48 125 1.0 4.0 0.00 0.00 0.00 84 1021.7
20190116014610 48 201 1.0 5.0 0.00 0.00 0.00 84 1021.7
20190116013117 48 207 1.0 4.0 0.00 0.00 0.00 84 1021.7
20190116011644 48 145 0.0 3.0 0.00 0.00 0.00 84 1021.6
20190116010219 48 146 1.0 4.0 0.00 0.00 0.00 84 1021.7
20190116004618 48 130 0.0 3.0 0.00 0.01 0.00 84 1021.8
20190116003145 48 180 1.0 3.0 0.00 0.01 0.00 84 1021.9
20190116001628 47 152 1.0 4.0 0.00 0.01 0.00 83 1022.1
20190116000125 47 153 0.0 3.0 0.00 0.01 0.00 83 1022.1
20190115234649 48 162 1.0 4.0 0.00 0.01 0.00 83 1022.3
20190115233116 48 66 1.0 5.0 0.00 0.01 0.00 82 1022.4
20190115231553 48 219 1.0 3.0 0.00 0.01 0.00 83 1022.5
20190115230103 48 146 1.0 4.0 0.00 0.01 0.00 82 1022.5
20190115224544 49 150 1.0 3.0 0.00 0.01 0.00 82 1022.5
20190115223046 49 190 1.0 4.0 0.00 0.01 0.00 82 1022.4
20190115221552 49 152 1.0 4.0 0.00 0.01 0.00 81 1022.3
20190115220051 49 137 1.0 4.0 0.00 0.01 0.00 81 1022.1
20190115214613 50 153 1.0 3.0 0.00 0.01 0.00 81 1022.1
20190115213028 50 152 1.0 3.0 0.00 0.01 0.00 80 1022.0
20190115211533 51 153 1.0 3.0 0.00 0.01 0.00 79 1022.0
20190115210054 51 154 1.0 2.0 0.00 0.01 0.00 79 1022.0
20190115204605 52 143 1.0 4.0 0.00 0.01 0.00 79 1021.9
20190115203024 52 147 1.0 3.0 0.00 0.01 0.00 78 1021.9
20190115201556 53 147 0.0 1.0 0.00 0.01 0.00 78 1021.7
20190115200020 53 142 0.0 1.0 0.00 0.01 0.00 78 1021.7
20190115194521 53 151 0.0 0.0 0.00 0.01 0.00 77 1021.8
20190115193032 54 151 0.0 0.0 0.00 0.01 0.00 77 1021.7
20190115191538 54 151 0.0 1.0 0.00 0.01 0.00 76 1021.6
20190115190045 55 157 0.0 1.0 0.00 0.01 0.00 76 1021.6
20190115184510 55 212 0.0 1.0 0.00 0.01 0.00 75 1021.5
20190115183007 56 216 0.0 1.0 0.00 0.01 0.00 74 1021.4
20190115181646 57 228 0.0 1.0 0.00 0.01 0.00 73 1021.3
20190115180210 57 289 0.0 1.0 0.00 0.01 0.00 72 1021.2
20190115174638 59 289 0.0 1.0 0.00 0.01 0.00 71 1021.2
20190115173244 60 289 0.0 1.0 0.00 0.01 0.00 70 1021.1
20190115171623 60 293 0.0 1.0 0.00 0.01 0.00 69 1021.1
20190115170233 60 292 1.0 3.0 0.00 0.01 0.00 69 1021.1
20190115164642 60 318 0.0 4.0 0.00 0.01 0.00 68 1021.1
20190115163244 60 292 2.0 4.0 0.00 0.01 0.00 70 1021.0
20190115161625 61 310 1.0 4.0 0.00 0.01 0.00 70 1021.0
20190115160243 61 317 2.0 4.0 0.00 0.01 0.00 70 1021.0